1504710000.95,7291,15.69,73622.0,3.79,-9.49,-11.15,0,*7D
1504710002.22,7292,15.69,73624.5,3.75,-9.45,-11.07,0,*7D
1504710003.46,7293,15.69,73614.3,3.77,-9.11,-10.75,0,*7B
1504710004.7,7294,15.69,73622.0,3.77,-9.49,-11.29,0,*79
1504710005.89,7295,15.63,73620.8,3.77,-9.75,-11.45,0,*7D
1504710007.12,7296,15.69,73616.0,3.77,-9.61,-11.29,0,*71
1504710008.35,7297,15.69,73616.8,3.75,-10.05,-11.73,0,*47
1504710009.59,7298,15.69,73616.5,3.75,-9.93,-11.63,0,*7E
1504710010.78,7299,15.69,73618.3,3.73,-9.31,-10.97,0,*7B
1504710012.03,7300,15.69,73610.3,3.71,-9.01,-10.71,0,*73
1504710013.29,7301,15.69,73622.3,3.73,-9.11,-10.67,0,*76
1504710014.5,7302,15.69,73616.0,3.73,-9.53,-11.11,0,*73
1504710015.75,7303,15.69,73620.5,3.73,-9.11,-10.75,0,*77
1504710016.99,7304,15.63,73618.5,3.73,-9.11,-10.75,0,*70
1504710018.24,7305,15.69,73628.8,3.71,-9.37,-11.01,0,*75
1504710019.45,7306,15.69,73628.3,3.73,-9.45,-11.11,0,*70
1504710020.69,7307,15.63,73624.8,3.71,-9.45,-11.11,0,*73
1504710021.88,7308,15.69,73620.8,3.73,-9.31,-10.89,0,*7D
1504710023.14,7309,15.69,73620.0,3.71,-9.61,-11.29,0,*70
1504710024.38,7310,15.63,73622.5,3.71,-9.75,-11.37,0,*72
1504710025.62,7311,15.63,73624.0,3.71,-9.97,-11.63,0,*7E
1504710026.85,7312,15.69,73618.3,3.71,-9.61,-11.15,0,*75
1504710028.07,7313,15.63,73618.3,3.67,-8.97,-10.49,0,*73
1504710029.29,7314,15.69,73620.3,3.67,-8.67,-10.23,0,*77
1504710030.52,7315,15.69,73616.8,3.67,-8.41,-10.01,0,*72
1504710031.7,7316,15.63,73620.3,3.73,-8.33,-9.93,0,*42
1504710032.88,7317,15.69,73624.3,3.73,-8.33,-9.93,0,*43
1504710034.1,7318,15.69,73628.8,3.71,-8.37,-10.01,0,*79
1504710035.35,7319,15.69,73632.5,3.75,-8.85,-10.41,0,*71
1504710036.63,7320,15.69,73630.8,3.75,-9.15,-10.75,0,*74
1504710037.83,7321,15.69,73622.5,3.75,-9.67,-11.11,0,*73
1504710039.04,7322,15.69,73624.3,3.73,-9.97,-11.51,0,*7D
1504710040.26,7323,15.63,73624.3,3.73,-9.31,-10.79,0,*7B
1504710041.48,7324,15.69,73622.3,3.73,-9.19,-10.79,0,*76
1504710042.76,7325,15.69,73624.3,3.71,-9.15,-10.67,0,*76
1504710043.96,7326,15.69,73626.3,3.73,-8.75,-10.15,0,*75
1504710045.15,7327,15.63,73624.8,3.73,-8.59,-10.09,0,*77
1504710046.34,7328,15.63,73632.3,3.73,-8.45,-9.97,0,*4A
1504710047.53,7329,15.69,73628.8,3.73,-8.97,-10.49,0,*7F
1504710048.77,7330,15.69,73630.0,3.75,-9.27,-10.79,0,*78
1504710050.01,7331,15.69,73626.5,3.75,-9.53,-10.97,0,*7A
1504710051.21,7332,15.69,73626.8,3.75,-9.67,-11.19,0,*79
1504710052.43,7333,15.63,73628.8,3.73,-10.05,-11.59,0,*46
1504710053.66,7334,15.63,73630.5,3.71,-9.97,-11.51,0,*78
1504710054.89,7335,15.63,73632.0,3.71,-9.61,-11.01,0,*75
1504710056.13,7336,15.69,73636.3,3.71,-9.45,-10.85,0,*7D
1504710057.37,7337,15.69,73636.8,3.71,-9.31,-10.79,0,*7C
1504710058.6,7338,15.69,73630.5,3.73,-9.01,-10.41,0,*79
1504710059.8,7339,15.69,73622.8,3.73,-8.85,-10.15,0,*74
1504710061.05,7340,15.63,73622.3,3.71,-8.81,-10.15,0,*7C
1504710062.27,7341,15.63,73626.5,3.73,-9.31,-10.79,0,*7F
1504710063.49,7342,15.69,73620.8,3.73,-9.45,-10.93,0,*7B
1504710064.7,7343,15.69,73594.8,3.73,-9.31,-10.79,0,*7D
1504710065.95,7344,15.63,73614.8,3.71,-8.81,-10.15,0,*78
1504710067.14,7345,15.69,73622.0,3.73,-8.37,-9.71,0,*4C
1504710068.33,7346,15.69,73610.3,3.73,-8.71,-10.05,0,*76
1504710069.58,7347,15.69,73612.8,3.75,-9.01,-10.41,0,*77
1504710070.81,7348,15.63,73608.5,3.75,-8.89,-10.15,0,*78
1504710072.02,7349,15.63,73608.8,3.75,-8.63,-9.97,0,*4F
1504710073.23,7350,15.69,73610.3,3.77,-8.81,-10.09,0,*76
1504710074.46,7351,15.69,73610.3,3.75,-8.59,-9.83,0,*4A
1504710075.64,7352,15.69,73610.8,3.77,-8.59,-9.93,0,*4A
1504710076.85,7353,15.69,73608.8,3.75,-8.71,-9.97,0,*47
1504710078.06,7354,15.69,73614.5,3.77,-8.33,-9.61,0,*4D
1504710079.23,7355,15.69,73618.3,3.77,-8.33,-9.75,0,*49
1504710080.42,7356,15.69,73608.5,3.77,-8.45,-9.79,0,*47
1504710081.63,7357,15.63,73620.3,3.79,-8.45,-9.75,0,*44
1504710082.87,7358,15.63,73616.8,3.79,-8.81,-10.05,0,*7C
1504710084.05,7359,15.69,73622.8,3.81,-8.55,-9.89,0,*4F
1504710085.25,7360,15.69,73624.5,3.81,-8.29,-9.61,0,*48
1504710086.49,7361,15.69,73630.3,3.79,-8.25,-9.49,0,*48
1504710087.7,7362,15.69,73624.0,3.81,-8.41,-9.83,0,*48
1504710088.88,7363,15.69,73626.5,3.81,-8.63,-9.97,0,*4C
1504710090.1,7364,15.69,73628.0,3.81,-9.31,-10.67,0,*7A
1504710091.32,7365,15.69,73638.5,3.81,-9.11,-10.53,0,*7E
1504710092.54,7366,15.69,73632.5,3.81,-9.37,-10.57,0,*7D
1504710093.81,7367,15.69,73630.8,3.79,-9.41,-10.75,0,*7A
1504710095.04,7368,15.63,73620.5,3.79,-9.49,-10.85,0,*72
1504710096.25,7369,15.69,73626.8,3.81,-9.97,-11.29,0,*70
1504710097.47,7370,15.69,73618.3,3.77,-10.19,-11.55,0,*44
1504710098.71,7371,15.69,73622.0,3.75,-10.15,-11.51,0,*4F
1504710099.98,7372,15.69,73616.0,3.75,-9.45,-10.75,0,*76
1504710101.19,7373,15.69,73610.8,3.75,-9.67,-10.93,0,*7F
1504710102.41,7374,15.69,73614.3,3.77,-9.15,-10.45,0,*74
1504710103.63,7375,15.69,73618.0,3.75,-8.85,-10.09,0,*77
1504710104.83,7376,15.69,73622.0,3.77,-8.67,-10.01,0,*72
1504710106.03,7377,15.69,73626.0,3.77,-8.41,-9.61,0,*49
1504710107.27,7378,15.63,73620.5,3.77,-9.41,-10.71,0,*7E
1504710108.52,7379,15.69,73624.8,3.75,-9.15,-10.27,0,*7F
1504710109.75,7380,15.69,73624.0,3.77,-9.11,-10.45,0,*7B
1504710110.97,7381,15.63,73630.0,3.77,-9.15,-10.35,0,*79
1504710112.2,7382,15.63,73622.5,3.77,-9.11,-10.35,0,*7E
1504710113.43,7383,15.69,73614.5,3.77,-9.11,-10.35,0,*7F
1504710114.62,7384,15.69,73608.5,3.77,-9.05,-10.23,0,*7A
1504710115.8,7385,15.63,73614.8,3.77,-8.41,-9.67,0,*42
1504710116.99,7386,15.63,73624.8,3.77,-8.55,-9.75,0,*47
1504710118.22,7387,15.63,73618.5,3.79,-8.81,-9.93,0,*49
1504710119.44,7388,15.69,73620.0,3.79,-8.97,-10.19,0,*7B
1504710120.66,7389,15.69,73622.5,3.79,-8.71,-9.93,0,*48
1504710121.89,7390,15.69,73626.8,3.79,-8.85,-10.01,0,*78
1504710123.11,7391,15.69,73630.5,3.79,-8.85,-10.05,0,*7D
1504710124.33,7392,15.63,73624.0,3.79,-9.05,-10.23,0,*73
1504710125.57,7393,15.69,73630.8,3.79,-9.37,-10.45,0,*73
1504710126.79,7394,15.63,73630.3,3.79,-9.05,-10.31,0,*76
1504710128.01,7395,15.69,73630.0,3.81,-9.37,-10.57,0,*71
1504710129.27,7396,15.63,73632.0,3.79,-9.53,-10.63,0,*70
1504710130.49,7397,15.69,73628.8,3.79,-9.23,-10.45,0,*72
1504710131.76,7398,15.69,73632.5,3.79,-9.41,-10.63,0,*7D
1504710133.01,7399,15.69,73632.5,3.79,-9.11,-10.31,0,*7E
1504710134.23,7400,15.63,73626.3,3.79,-8.93,-10.09,0,*79
1504710135.45,7401,15.69,73630.3,3.79,-8.85,-10.01,0,*77
1504710136.73,7402,15.69,73634.0,3.79,-9.37,-10.63,0,*78
1504710137.94,7403,15.69,73632.3,3.79,-9.23,-10.31,0,*7B
1504710139.2,7404,15.69,73628.5,3.79,-9.15,-10.19,0,*73
1504710140.46,7405,15.69,73626.8,3.79,-9.53,-10.71,0,*7E
1504710141.73,7406,15.63,73622.3,3.79,-9.41,-10.63,0,*7D
1504710142.95,7407,15.69,73620.5,3.77,-9.37,-10.49,0,*7B
1504710144.16,7408,15.69,73630.0,3.75,-9.67,-10.89,0,*7F
1504710145.4,7409,15.69,73628.3,3.77,-9.41,-10.63,0,*7C
1504710146.62,7410,15.69,73626.0,3.75,-9.27,-10.53,0,*75
1504710147.86,7411,15.69,73618.3,3.75,-9.11,-10.35,0,*71
1504710149.09,7412,15.69,73620.5,3.77,-9.15,-10.31,0,*70
1504710150.31,7413,15.69,73622.3,3.75,-9.19,-10.35,0,*7B
1504710151.54,7414,15.69,73624.3,3.77,-9.11,-10.19,0,*78
1504710152.76,7415,15.69,73626.0,3.77,-9.15,-10.31,0,*77
1504710153.95,7416,15.69,73626.3,3.77,-9.27,-10.45,0,*76
1504710155.14,7417,15.63,73626.0,3.77,-9.23,-10.45,0,*73
1504710156.4,7418,15.69,73620.8,3.75,-9.15,-10.35,0,*7C
1504710157.59,7419,15.69,73618.3,3.77,-9.27,-10.35,0,*7E
1504710158.83,7420,15.63,73616.8,3.77,-9.61,-10.63,0,*75
1504710160.09,7421,15.63,73622.8,3.75,-9.53,-10.67,0,*73
1504710161.35,7422,15.69,73628.5,3.75,-9.53,-10.63,0,*74
1504710162.59,7423,15.69,73628.0,3.75,-9.45,-10.53,0,*71
1504710163.86,7424,15.69,73632.5,3.75,-9.41,-10.41,0,*71
1504710165.08,7425,15.69,73634.5,3.73,-9.41,-10.49,0,*7E
1504710166.31,7426,15.69,73634.3,3.73,-9.31,-10.41,0,*72
1504710167.52,7427,15.63,73626.3,3.73,-9.75,-10.79,0,*78
1504710168.74,7428,15.69,73632.8,3.71,-10.01,-11.23,0,*40
1504710169.96,7429,15.63,73634.8,3.71,-10.31,-11.41,0,*46
1504710171.21,7430,15.63,73624.5,3.71,-10.19,-11.37,0,*45
1504710172.43,7431,15.69,73622.3,3.71,-9.83,-10.85,0,*77
1504710173.68,7432,15.63,73626.0,3.67,-9.41,-10.49,0,*7D
1504710174.91,7433,15.69,73626.8,3.67,-9.19,-10.31,0,*7E
1504710176.15,7434,15.63,73624.5,3.67,-9.37,-10.45,0,*76
1504710177.4,7435,15.63,73624.8,3.67,-9.11,-10.23,0,*73
1504710178.65,7436,15.69,73624.5,3.67,-9.41,-10.49,0,*79
1504710179.87,7437,15.69,73626.0,3.67,-9.19,-10.23,0,*79
1504710181.1,7438,15.69,73618.8,3.67,-9.05,-10.15,0,*7E
1504710182.32,7439,15.69,73624.8,3.67,-8.93,-9.93,0,*47
1504710183.54,7440,15.69,73626.5,3.67,-8.71,-9.75,0,*4D
1504710184.76,7441,15.69,73622.0,3.71,-9.19,-10.27,0,*7B
1504710186.02,7442,15.63,73634.8,3.71,-9.49,-10.71,0,*7E
1504710187.25,7443,15.69,73632.3,3.67,-9.05,-10.05,0,*73
1504710188.5,7444,15.63,73630.8,3.71,-9.15,-10.19,0,*7F
1504710189.75,7445,15.69,73620.5,3.71,-9.23,-10.41,0,*76
1504710190.97,7446,15.63,73620.3,3.71,-9.31,-10.31,0,*71
1504710192.2,7447,15.69,73620.5,3.71,-9.57,-10.53,0,*74
1504710193.44,7448,15.69,73624.5,3.71,-9.31,-10.41,0,*78
1504710194.69,7449,15.69,73634.5,3.71,-9.71,-10.71,0,*7E
1504710195.94,7450,15.63,73622.0,3.71,-9.57,-10.71,0,*72
1504710197.21,7451,15.69,73630.0,3.67,-9.61,-10.63,0,*72
1504710198.4,7452,15.63,73632.3,3.65,-9.79,-10.85,0,*72
1504710199.64,7453,15.63,73628.3,3.65,-9.61,-10.63,0,*72
1504710200.89,7454,15.69,73618.0,3.65,-9.53,-10.63,0,*74
1504710202.14,7455,15.69,73620.3,3.67,-9.41,-10.35,0,*77
1504710203.34,7456,15.69,73626.0,3.65,-9.27,-10.31,0,*72
1504710204.57,7457,15.69,73612.8,3.67,-9.27,-10.35,0,*75
1504710205.77,7458,15.69,73610.0,3.65,-9.05,-10.15,0,*7A
1504710206.97,7459,15.69,73614.0,3.65,-9.27,-10.23,0,*7E
1504710208.18,7460,15.69,73620.0,3.67,-8.67,-9.75,0,*48
1504710209.4,7461,15.69,73634.3,3.67,-8.85,-9.89,0,*46
1504710210.63,7462,15.63,73638.0,3.67,-8.59,-9.61,0,*42
1504710211.86,7463,15.69,73634.3,3.67,-8.93,-9.93,0,*48
1504710213.08,7464,15.63,73620.8,3.67,-9.19,-10.05,0,*7B
1504710214.3,7465,15.69,73630.3,3.71,-9.23,-10.15,0,*75
1504710215.53,7466,15.69,73632.5,3.71,-9.57,-10.45,0,*70
1504710216.78,7467,15.69,73630.8,3.71,-9.75,-10.67,0,*71
1504710218.0,7468,15.69,73618.3,3.71,-9.31,-10.19,0,*77
1504710219.27,7469,15.69,73614.8,3.71,-9.37,-10.41,0,*7D
1504710220.51,7470,15.69,73622.5,3.67,-9.93,-10.71,0,*7F
1504710221.69,7471,15.63,73612.5,3.65,-9.89,-10.85,0,*7C
1504710222.92,7472,15.69,73612.0,3.67,-10.35,-11.41,0,*4B
1504710224.15,7473,15.69,73604.8,3.65,-10.19,-11.07,0,*44
1504710225.37,7474,15.69,73602.8,3.65,-9.79,-10.75,0,*79
1504710226.56,7475,15.69,73610.5,3.65,-8.97,-9.93,0,*49
1504710227.76,7476,15.63,73614.8,3.65,-8.71,-9.67,0,*49
1504710228.98,7477,15.69,73624.3,3.65,-8.45,-9.37,0,*4A
1504710230.17,7478,15.63,73622.3,3.65,-8.71,-9.75,0,*44
1504710231.37,7479,15.69,73620.0,3.65,-9.27,-10.31,0,*7F
1504710232.62,7480,15.69,73608.3,3.67,-9.79,-10.75,0,*70
1504710233.84,7481,15.63,73604.0,3.65,-9.79,-10.75,0,*73
1504710235.05,7482,15.69,73606.5,3.65,-9.27,-10.15,0,*7D
1504710236.24,7483,15.69,73608.0,3.65,-9.05,-9.93,0,*4A
1504710237.48,7484,15.63,73610.3,3.67,-8.55,-9.41,0,*44
1504710238.7,7485,15.69,73622.5,3.65,-8.67,-9.53,0,*45
1504710239.95,7486,15.69,73608.0,3.67,-9.37,-10.31,0,*7C
1504710241.17,7487,15.69,73610.0,3.65,-9.53,-10.35,0,*79
1504710242.39,7488,15.69,73604.3,3.65,-9.53,-10.49,0,*7D
1504710243.59,7489,15.69,73612.0,3.65,-10.01,-10.97,0,*40
1504710244.81,7490,15.69,73614.5,3.65,-10.57,-11.55,0,*44
1504710246.01,7491,15.69,73608.5,3.63,-10.27,-11.23,0,*45
1504710247.25,7492,15.69,73612.5,3.61,-9.67,-10.63,0,*7D
1504710248.47,7493,15.63,73604.3,3.61,-9.27,-10.19,0,*75
1504710249.68,7494,15.69,73608.8,3.61,-9.01,-9.93,0,*4C
1504710250.93,7495,15.63,73606.0,3.61,-9.15,-10.09,0,*73
1504710252.15,7496,15.69,73614.8,3.61,-9.23,-10.19,0,*74
1504710253.34,7497,15.63,73614.8,3.63,-9.79,-10.53,0,*76
1504710254.57,7498,15.69,73616.0,3.61,-9.27,-10.19,0,*7E
1504710255.76,7499,15.69,73618.5,3.63,-9.01,-9.93,0,*43
1504710256.98,7500,15.69,73622.5,3.63,-9.15,-10.05,0,*70
1504710258.17,7501,15.69,73620.3,3.63,-8.75,-9.67,0,*4A
1504710259.36,7502,15.69,73612.0,3.63,-8.71,-9.67,0,*4D
1504710260.54,7503,15.69,73604.8,3.63,-8.75,-9.67,0,*48
1504710261.75,7504,15.69,73600.8,3.63,-8.51,-9.27,0,*4D
1504710262.94,7505,15.63,73616.8,3.65,-8.25,-8.97,0,*43
1504710264.18,7506,15.69,73632.5,3.67,-8.45,-9.37,0,*4F
1504710265.43,7507,15.63,73614.5,3.67,-9.37,-10.15,0,*72
1504710266.65,7508,15.63,73598.3,3.65,-8.85,-9.61,0,*4C
1504710267.87,7509,15.69,73596.3,3.67,-8.55,-9.23,0,*44
1504710269.12,7510,15.69,73600.8,3.67,-9.11,-10.01,0,*75
1504710270.34,7511,15.69,73606.3,3.67,-8.85,-9.67,0,*40
1504710271.58,7512,15.63,73608.8,3.67,-8.67,-9.49,0,*43
1504710272.82,7513,15.69,73616.8,3.67,-9.49,-10.45,0,*7B
1504710274.05,7514,15.63,73622.8,3.67,-10.15,-11.01,0,*4C
1504710275.24,7515,15.69,73622.8,3.65,-10.31,-11.19,0,*40
1504710276.45,7516,15.69,73618.8,3.65,-10.31,-11.01,0,*4A
1504710277.63,7517,15.63,73618.5,3.65,-9.89,-10.85,0,*7D
1504710278.87,7518,15.69,73622.3,3.61,-9.53,-10.27,0,*79
1504710280.08,7519,15.69,73624.5,3.63,-9.11,-10.09,0,*70
1504710281.31,7520,15.63,73626.0,3.63,-9.15,-10.05,0,*72
1504710282.52,7521,15.63,73624.5,3.61,-9.27,-10.09,0,*7C
1504710283.71,7522,15.63,73624.3,3.63,-9.27,-10.09,0,*7D
1504710284.94,7523,15.63,73626.8,3.61,-9.57,-10.49,0,*7D
1504710286.13,7524,15.69,73630.3,3.63,-9.23,-10.05,0,*73
1504710287.32,7525,15.63,73626.3,3.63,-9.31,-10.23,0,*75
1504710288.59,7526,15.63,73622.0,3.61,-9.57,-10.41,0,*70
1504710289.8,7527,15.63,73622.5,3.61,-9.97,-10.93,0,*72
1504710291.06,7528,15.63,73620.0,3.61,-9.57,-10.41,0,*7E
1504710292.32,7529,15.63,73622.3,3.61,-9.57,-10.41,0,*7F
1504710293.54,7530,15.63,73618.8,3.59,-9.45,-10.31,0,*78
1504710294.75,7531,15.63,73626.3,3.59,-9.57,-10.31,0,*7A
1504710295.94,7532,15.69,73624.8,3.59,-9.31,-10.23,0,*7A
1504710297.15,7533,15.63,73618.8,3.59,-9.61,-10.53,0,*79
1504710298.36,7534,15.63,73614.3,3.59,-9.61,-10.53,0,*7E
1504710299.61,7535,15.63,73616.8,3.57,-9.41,-10.27,0,*70
1504710300.87,7536,15.69,73624.5,3.57,-9.37,-10.19,0,*7F
1504710302.09,7537,15.63,73628.3,3.57,-9.19,-10.05,0,*7F
1504710303.28,7538,15.69,73636.5,3.59,-9.05,-9.97,0,*40
1504710304.49,7539,15.69,73634.0,3.59,-9.05,-9.83,0,*44
1504710305.72,7540,15.69,73618.5,3.59,-8.81,-9.45,0,*4D
1504710306.93,7541,15.69,73618.0,3.59,-8.51,-9.27,0,*45
1504710308.17,7542,15.69,73616.0,3.59,-8.81,-9.61,0,*49
1504710309.36,7543,15.69,73608.0,3.59,-9.31,-10.15,0,*79
1504710310.56,7544,15.63,73592.0,3.59,-9.01,-9.71,0,*47
1504710311.76,7545,15.69,73598.5,3.61,-8.45,-9.23,0,*4B
1504710313.0,7546,15.63,73610.5,3.61,-8.41,-9.11,0,*4D
1504710314.2,7547,15.69,73606.0,3.63,-8.41,-9.15,0,*4A
1504710315.41,7548,15.69,73620.0,3.63,-8.33,-9.11,0,*44
1504710316.61,7549,15.63,73612.8,3.63,-8.59,-9.41,0,*4C
1504710317.81,7550,15.69,73614.5,3.63,-9.27,-10.09,0,*78
1504710319.02,7551,15.63,73620.0,3.63,-9.53,-10.27,0,*76
1504710320.22,7552,15.69,73616.3,3.63,-9.71,-10.49,0,*7D
1504710321.41,7553,15.63,73612.3,3.63,-9.71,-10.53,0,*77
1504710322.6,7554,15.63,73610.8,3.63,-9.79,-10.49,0,*73
1504710323.81,7555,15.69,73610.8,3.59,-9.83,-10.57,0,*71
1504710325.05,7556,15.69,73610.5,3.61,-9.57,-10.35,0,*74
1504710326.29,7557,15.63,73608.5,3.61,-9.41,-10.23,0,*75
1504710327.53,7558,15.69,73616.0,3.61,-9.57,-10.35,0,*7A
1504710328.74,7559,15.63,73608.5,3.59,-9.57,-10.31,0,*74
1504710329.96,7560,15.69,73612.5,3.57,-9.79,-10.49,0,*73
1504710331.21,7561,15.63,73610.3,3.57,-9.79,-10.63,0,*7A
1504710332.45,7562,15.69,73614.3,3.57,-9.93,-10.75,0,*7A
1504710333.67,7563,15.63,73610.0,3.57,-9.79,-10.57,0,*7F
1504710334.89,7564,15.69,73612.8,3.57,-9.75,-10.57,0,*74
1504710336.1,7565,15.69,73618.3,3.59,-9.57,-10.31,0,*7B
1504710337.3,7566,15.63,73612.3,3.55,-9.67,-10.35,0,*73
1504710338.49,7567,15.69,73620.0,3.55,-9.89,-10.57,0,*76
1504710339.71,7568,15.69,73622.8,3.55,-9.49,-10.27,0,*72
1504710340.91,7569,15.69,73618.0,3.55,-9.19,-10.01,0,*72
1504710342.13,7570,15.63,73610.8,3.53,-9.23,-10.05,0,*71
1504710343.35,7571,15.63,73608.8,3.53,-9.27,-10.05,0,*74
1504710344.6,7572,15.63,73614.5,3.53,-9.37,-10.23,0,*72
1504710345.8,7573,15.63,73602.3,3.55,-9.23,-10.01,0,*70
1504710347.02,7574,15.63,73588.8,3.55,-9.37,-10.31,0,*71
1504710348.22,7575,15.69,73600.0,3.55,-10.05,-10.97,0,*45
1504710349.47,7576,15.69,73596.8,3.53,-9.67,-10.41,0,*77
1504710350.68,7577,15.69,73592.5,3.55,-9.61,-10.45,0,*72
1504710351.9,7578,15.63,73588.3,3.53,-9.67,-10.35,0,*7A
1504710353.17,7579,15.63,73598.8,3.53,-9.83,-10.63,0,*72
1504710354.37,7580,15.63,73596.5,3.51,-9.79,-10.49,0,*7B
1504710355.61,7581,15.63,73600.0,3.51,-9.83,-10.67,0,*73
1504710356.88,7582,15.63,73604.5,3.49,-9.83,-10.41,0,*7D
1504710358.13,7583,15.69,73606.3,3.49,-9.49,-10.27,0,*7A
1504710359.32,7584,15.63,73604.0,3.51,-9.27,-10.09,0,*70
1504710360.55,7585,15.63,73610.3,3.49,-9.71,-10.27,0,*77
1504710361.8,7586,15.69,73610.5,3.49,-9.49,-10.35,0,*7C
1504710363.05,7587,15.69,73612.0,3.49,-9.49,-10.27,0,*7E
1504710364.27,7588,15.63,73616.5,3.51,-9.49,-10.23,0,*7C
1504710365.46,7589,15.63,73610.5,3.51,-9.23,-9.97,0,*46
1504710366.7,7590,15.63,73608.5,3.49,-9.57,-10.35,0,*74
1504710367.95,7591,15.69,73606.5,3.49,-10.01,-10.79,0,*46
1504710369.2,7592,15.69,73604.5,3.49,-10.01,-10.67,0,*4A
1504710370.45,7593,15.63,73606.3,3.49,-9.45,-10.15,0,*76
1504710371.7,7594,15.69,73604.5,3.49,-9.45,-10.09,0,*7C
1504710372.94,7595,15.63,73612.8,3.45,-9.11,-9.79,0,*4F
1504710374.19,7596,15.63,73614.0,3.45,-9.37,-10.05,0,*7B
1504710375.43,7597,15.69,73616.5,3.49,-9.45,-10.23,0,*77
1504710376.68,7598,15.69,73616.0,3.49,-9.45,-10.23,0,*78
1504710377.92,7599,15.69,73616.8,3.49,-9.57,-10.27,0,*7E
1504710379.17,7600,15.69,73614.3,3.45,-10.01,-10.63,0,*4A
1504710380.36,7601,15.63,73610.8,3.43,-9.75,-10.45,0,*72
1504710381.58,7602,15.63,73608.8,3.43,-9.53,-10.19,0,*7C
1504710382.82,7603,15.69,73616.0,3.45,-9.53,-10.19,0,*7B
1504710384.0,7604,15.63,73612.0,3.43,-9.89,-10.57,0,*77
1504710385.19,7605,15.69,73610.5,3.43,-9.89,-10.49,0,*79
1504710386.43,7606,15.63,73610.0,3.41,-9.57,-10.31,0,*74
1504710387.64,7607,15.69,73612.0,3.39,-9.53,-10.31,0,*7E
1504710388.89,7608,15.69,73614.3,3.41,-9.41,-10.23,0,*7E
1504710390.13,7609,15.69,73610.5,3.41,-9.53,-10.23,0,*7C
1504710391.37,7610,15.63,73600.0,3.41,-9.57,-10.35,0,*77
1504710392.6,7611,15.69,73612.5,3.41,-9.71,-10.35,0,*72
1504710393.83,7612,15.63,73612.3,3.41,-9.67,-10.35,0,*76
1504710395.08,7613,15.63,73610.5,3.41,-9.49,-10.31,0,*7F
1504710396.3,7614,15.69,73616.3,3.39,-9.49,-10.19,0,*7D
1504710397.49,7615,15.69,73610.8,3.39,-9.27,-10.09,0,*75
1504710398.71,7616,15.63,73606.3,3.41,-9.27,-10.05,0,*75
1504710399.92,7617,15.63,73610.0,3.41,-9.23,-9.97,0,*43
1504710401.16,7618,15.63,73614.8,3.41,-9.23,-9.83,0,*49
1504710402.41,7619,15.63,73620.5,3.39,-9.15,-9.83,0,*42
1504710403.62,7620,15.63,73622.3,3.41,-9.27,-9.97,0,*43
1504710404.85,7621,15.63,73624.8,3.41,-9.67,-10.35,0,*76
1504710406.09,7622,15.63,73624.0,3.41,-9.97,-10.63,0,*79
1504710407.31,7623,15.63,73614.3,3.39,-9.93,-10.63,0,*73
1504710408.49,7624,15.63,73592.0,3.39,-9.67,-10.45,0,*7B
1504710409.71,7625,15.69,73586.3,3.39,-9.11,-9.79,0,*4C
1504710410.93,7626,15.69,73596.3,3.39,-8.89,-9.41,0,*44
1504710412.17,7627,15.69,73604.5,3.41,-8.45,-9.11,0,*4F
1504710413.41,7628,15.63,73596.5,3.41,-8.55,-9.15,0,*45
1504710414.62,7629,15.69,73612.3,3.39,-8.89,-9.49,0,*43
1504710415.85,7630,15.63,73612.8,3.41,-9.01,-9.71,0,*4E
1504710417.12,7631,15.69,73612.3,3.41,-9.15,-9.83,0,*47
1504710418.37,7632,15.63,73608.5,3.41,-9.37,-10.09,0,*7E
1504710419.59,7633,15.69,73600.0,3.41,-9.27,-10.05,0,*72
1504710420.8,7634,15.69,73600.3,3.39,-9.37,-9.97,0,*48
1504710422.05,7635,15.63,73610.3,3.41,-9.15,-9.79,0,*46
1504710423.3,7636,15.63,73608.0,3.41,-8.85,-9.49,0,*4E
1504710424.54,7637,15.69,73618.8,3.41,-8.85,-9.53,0,*44
1504710425.76,7638,15.63,73614.3,3.43,-8.85,-9.49,0,*42
1504710426.97,7639,15.63,73606.8,3.43,-8.97,-9.61,0,*4A
1504710428.19,7640,15.69,73604.5,3.41,-9.23,-9.97,0,*41
1504710429.41,7641,15.69,73602.5,3.41,-9.27,-10.05,0,*77
1504710430.65,7642,15.63,73602.8,3.41,-9.27,-9.83,0,*42
1504710431.86,7643,15.63,73606.5,3.43,-9.11,-9.75,0,*4D
1504710433.11,7644,15.69,73612.3,3.41,-9.01,-9.49,0,*46
1504710434.33,7645,15.63,73612.3,3.41,-8.89,-9.67,0,*4A
1504710435.56,7646,15.63,73622.5,3.41,-8.89,-9.67,0,*49
1504710436.79,7647,15.69,73620.8,3.41,-8.75,-9.41,0,*4F
1504710438.01,7648,15.69,73618.3,3.43,-8.71,-9.41,0,*46
1504710439.25,7649,15.63,73616.0,3.45,-8.85,-9.49,0,*42
1504710440.44,7650,15.63,73614.8,3.43,-8.97,-9.67,0,*43
1504710441.65,7651,15.63,73616.8,3.43,-8.85,-9.49,0,*4D
1504710442.87,7652,15.69,73614.8,3.43,-8.93,-9.45,0,*45
1504710444.12,7653,15.69,73610.5,3.45,-8.71,-9.45,0,*4E
1504710445.36,7654,15.63,73606.8,3.45,-8.93,-9.61,0,*43
1504710446.57,7655,15.63,73614.8,3.43,-8.93,-9.49,0,*4E
1504710447.82,7656,15.63,73622.5,3.45,-8.85,-9.45,0,*40
1504710449.06,7657,15.63,73624.8,3.45,-9.49,-10.27,0,*7C
1504710450.29,7658,15.63,73618.5,3.43,-9.75,-10.41,0,*7A
1504710451.55,7659,15.63,73620.5,3.45,-9.61,-10.41,0,*78
1504710452.77,7660,15.69,73618.5,3.43,-9.45,-10.19,0,*7F
1504710453.96,7661,15.63,73618.5,3.43,-9.23,-9.89,0,*4F
1504710455.15,7662,15.63,73618.8,3.43,-9.19,-9.79,0,*4A
1504710456.37,7663,15.63,73618.0,3.43,-9.11,-9.79,0,*43
1504710457.58,7664,15.63,73622.5,3.43,-9.11,-9.67,0,*4B
1504710458.8,7665,15.63,73620.8,3.43,-8.93,-9.49,0,*4D
1504710460.07,7666,15.69,73626.0,3.41,-9.15,-9.83,0,*45
1504710461.32,7667,15.69,73630.8,3.41,-9.11,-9.79,0,*45
1504710462.54,7668,15.63,73632.8,3.41,-9.27,-10.09,0,*70
1504710463.79,7669,15.63,73630.8,3.41,-9.11,-9.79,0,*4B
1504710465.03,7670,15.63,73628.0,3.41,-8.89,-9.53,0,*4B
1504710466.28,7671,15.63,73624.0,3.41,-9.11,-9.71,0,*4A
1504710467.47,7672,15.69,73618.0,3.43,-9.05,-9.79,0,*46
1504710468.69,7673,15.69,73620.5,3.39,-9.11,-9.79,0,*4F
1504710469.94,7674,15.63,73608.5,3.41,-9.41,-10.31,0,*76
1504710471.17,7675,15.63,73626.8,3.41,-9.71,-10.45,0,*77
1504710472.38,7676,15.69,73632.3,3.41,-8.97,-9.67,0,*45
1504710473.59,7677,15.69,73634.0,3.39,-8.59,-9.37,0,*4C
1504710474.8,7678,15.69,73634.3,3.39,-8.67,-9.37,0,*4E
1504710476.05,7679,15.69,73626.5,3.41,-8.45,-9.11,0,*44
1504710477.26,7680,15.63,73626.5,3.43,-8.85,-9.37,0,*48
1504710478.45,7681,15.63,73622.5,3.43,-9.31,-10.05,0,*7E
1504710479.65,7682,15.63,73616.3,3.43,-9.23,-10.01,0,*7A
1504710480.87,7683,15.63,73604.3,3.43,-9.53,-10.31,0,*7F
1504710482.05,7684,15.69,73608.8,3.43,-8.97,-9.75,0,*49
1504710483.27,7685,15.63,73618.0,3.41,-8.97,-9.71,0,*4E
1504710484.52,7686,15.63,73608.8,3.41,-9.37,-10.09,0,*71
1504710485.76,7687,15.63,73616.8,3.39,-9.83,-10.63,0,*7C
1504710486.97,7688,15.63,73618.0,3.39,-9.97,-10.79,0,*7D
1504710488.19,7689,15.63,73610.8,3.39,-9.41,-10.19,0,*71
1504710489.38,7690,15.69,73604.5,3.39,-8.59,-9.27,0,*44
1504710490.56,7691,15.69,73604.8,3.39,-8.33,-8.85,0,*40
1504710491.77,7692,15.63,73608.0,3.41,-8.17,-8.71,0,*41
1504710493.01,7693,15.63,73608.8,3.41,-8.07,-8.71,0,*41
1504710494.24,7694,15.63,73620.3,3.41,-8.07,-8.71,0,*46
1504710495.46,7695,15.63,73624.0,3.41,-8.21,-8.85,0,*48
1504710496.67,7696,15.69,73624.3,3.43,-8.11,-8.71,0,*41
1504710497.89,7697,15.63,73608.8,3.45,-7.99,-8.67,0,*4E
1504710499.12,7698,15.63,73612.8,3.45,-8.03,-8.67,0,*4D
1504710500.33,7699,15.63,73610.5,3.45,-8.41,-9.05,0,*4F
1504710501.54,7700,15.63,73612.5,3.51,-8.07,-8.59,0,*41
1504710502.77,7701,15.63,73618.8,3.49,-7.83,-8.51,0,*42
1504710503.99,7702,15.69,73626.8,3.51,-7.65,-8.41,0,*41
1504710505.19,7703,15.63,73618.3,3.51,-7.77,-8.55,0,*46
1504710506.41,7704,15.69,73624.8,3.53,-8.45,-9.01,0,*4D
1504710507.62,7705,15.69,73624.3,3.53,-8.63,-9.27,0,*4C
1504710508.87,7706,15.63,73614.8,3.53,-8.89,-9.57,0,*4C
1504710510.11,7707,15.69,73618.5,3.53,-8.89,-9.57,0,*4D
1504710511.33,7708,15.69,73612.5,3.53,-9.23,-10.05,0,*7C
1504710512.57,7709,15.63,73610.3,3.53,-9.53,-10.23,0,*7E
1504710513.81,7710,15.63,73600.0,3.49,-9.57,-10.27,0,*7D
1504710515.03,7711,15.63,73608.8,3.51,-9.15,-9.75,0,*4C
1504710516.25,7712,15.69,73614.5,3.51,-8.63,-9.37,0,*49
1504710517.46,7713,15.69,73612.8,3.51,-8.45,-9.15,0,*4C